Lander, WY

7:01 PM MDT on March 23, 2017 (GMT -0600)
Hunt

Weather History for KLND - November, 2013

Change the Weather History Date:

Saturday, November 16, 2013

  Actual Average Record
Temperature  
Mean Temperature 34 °F 31 °F  
Max Temperature 47 °F 42 °F 66 °F (1896)
Min Temperature 21 °F 19 °F -17 °F (1978)
Degree Days  
Heating Degree Days 31 34  
Month to date heating degree days 429 478  
Since 1 July heating degree days 1374 1339  
Cooling Degree Days 0 0  
Month to date cooling degree days 0 0  
Year to date cooling degree days 743 472  
Moisture  
Dew Point 16 °F    
Average Humidity 47    
Maximum Humidity 68    
Minimum Humidity 25    
Precipitation  
Precipitation T in 0.03 in 0.30 in (1911)
Month to date precipitation T 0.49  
Year to date precipitation 14.72 11.71  
Snow  
Snow 0.00 in 0.40 in - ()
Month to date snowfall 0.0 6.8  
Since 1 July snowfall 26.0 19.3  
Since 1 September snowfall 26.0 19.3  
Snow Depth -    
Sea Level Pressure  
Sea Level Pressure 29.38 in    
Wind  
Wind Speed 11 mph (West)    
Max Wind Speed 35 mph    
Max Gust Speed 48 mph    
Visibility 10 miles    
Events      
T = Trace of Precipitation, MM = Missing Value Source: NWS Daily Summary

Daily Weather History Graph

Daily Weather History Graph

Search for Another Location

Airport or City:

Trip Planner

Search our weather history database for the weather conditions in past years. The results will help you decide how hot, cold, wet, or windy it might be!

Date:

Astronomy

Nov. 16, 2013 Rise Set
Actual Time 7:08 AM MST 4:50 PM MST
Civil Twilight 6:37 AM MST 5:21 PM MST
Nautical Twilight 6:03 AM MST 5:55 PM MST
Astronomical Twilight 5:30 AM MST 6:28 PM MST
Moon 4:28 PM MST (11/16) 6:06 AM MST (11/16)
Length of Visible Light 10h 43m
Length of Day
9h 42m
Waxing Gibbous, 99% of the Moon is Illuminated
Nov 16
Waxing Gibbous
Nov 17
Full
Nov 25
Last Quarter
Dec 2
New
Dec 9
First Quarter

Hourly Weather History & Observations

Time (MST) Temp. Windchill Dew Point Humidity Pressure Visibility Wind Dir Wind Speed Gust Speed Precip Events Conditions
12:53 AM 26.1 °F 20.5 °F 14.0 °F 60% 29.41 in 10.0 mi SE 4.6 mph - N/A   Clear
1:53 AM 24.1 °F 16.0 °F 14.0 °F 65% 29.41 in 10.0 mi SSW 6.9 mph - N/A   Clear
2:53 AM 27.0 °F 16.1 °F 14.0 °F 58% 29.38 in 10.0 mi SE 12.7 mph - N/A   Clear
3:53 AM 24.1 °F 16.0 °F 16.0 °F 71% 29.37 in 10.0 mi NNW 6.9 mph - N/A   Scattered Clouds
4:53 AM 26.1 °F 18.4 °F 15.1 °F 63% 29.37 in 10.0 mi WNW 6.9 mph - N/A   Mostly Cloudy
5:53 AM 27.0 °F 19.5 °F 14.0 °F 58% 29.36 in 10.0 mi West 6.9 mph - N/A   Clear
6:53 AM 28.9 °F 20.4 °F 12.9 °F 51% 29.38 in 10.0 mi WSW 9.2 mph - N/A   Partly Cloudy
7:53 AM 27.0 °F 20.5 °F 15.1 °F 61% 29.37 in 10.0 mi ESE 5.8 mph - N/A   Clear
8:53 AM 28.0 °F 20.8 °F 17.1 °F 63% 29.37 in 10.0 mi NW 6.9 mph - N/A   Clear
9:53 AM 39.9 °F 35.8 °F 12.9 °F 33% 29.32 in 10.0 mi Variable 5.8 mph - N/A   Clear
10:53 AM 42.1 °F 39.2 °F 12.9 °F 31% 29.32 in 10.0 mi Variable 4.6 mph - N/A   Partly Cloudy
11:53 AM 43.0 °F 35.7 °F 10.0 °F 26% 29.30 in 10.0 mi NW 15.0 mph 27.6 mph N/A   Clear
12:53 PM 45.0 °F - 10.9 °F 25% 29.28 in 10.0 mi North - - N/A   Scattered Clouds
1:53 PM 44.1 °F 41.5 °F 15.1 °F 31% 29.30 in 10.0 mi Variable 4.6 mph - N/A   Partly Cloudy
2:34 PM 42.1 °F 32.1 °F 18.0 °F 38% 29.27 in 10.0 mi WSW 25.3 mph 38.0 mph N/A   Clear
2:53 PM 37.9 °F 26.1 °F 19.9 °F 48% 29.30 in 10.0 mi West 27.6 mph 44.9 mph N/A   Clear
3:53 PM 37.0 °F 25.4 °F 19.9 °F 50% 29.35 in 10.0 mi WSW 25.3 mph 42.6 mph N/A   Clear
4:53 PM 37.0 °F 28.9 °F 16.0 °F 42% 29.37 in 10.0 mi WSW 12.7 mph - N/A   Clear
5:53 PM 36.0 °F 26.7 °F 19.0 °F 50% 29.40 in 10.0 mi WSW 15.0 mph - N/A   Overcast
6:53 PM 32.0 °F 24.2 °F 23.0 °F 69% 29.43 in 10.0 mi SSW 9.2 mph - N/A   Mostly Cloudy
7:53 PM 34.0 °F 26.0 °F 17.1 °F 50% 29.43 in 10.0 mi WSW 10.4 mph - N/A   Mostly Cloudy
8:36 PM 35.1 °F 25.9 °F 18.0 °F 50% 29.41 in 10.0 mi WNW 13.8 mph 25.3 mph N/A   Overcast
8:53 PM 34.0 °F 24.6 °F 19.0 °F 54% 29.46 in 10.0 mi West 13.8 mph - N/A   Overcast
9:53 PM 32.0 °F 20.8 °F 16.0 °F 52% 29.44 in 10.0 mi WSW 17.3 mph - 0.00 in   Scattered Clouds
10:53 PM 30.0 °F 19.5 °F 14.0 °F 51% 29.50 in 10.0 mi NW 13.8 mph - N/A   Clear
11:53 PM 27.0 °F 20.5 °F 15.1 °F 61% 29.55 in 10.0 mi NW 5.8 mph - N/A   Clear